Location: Dawleys
(37.2126°N, 89.2962°W)
Time: 22:59:23
(UTC+00:00)

Daily predictions for brighter satellites

Satellite Brightness Start Highest point End
(mag) Time Altitude Azimuth Time Altitude Azimuth Time Altitude Azimuth
ASTRO E2 4.3 12:00:47 10° SW 12:04:12 28° S 12:07:38 10° ESE
YAOGAN 6 2.9 12:01:22 10° N 12:04:45 42° WNW 12:08:04 10° SSW
Cosmos 1689 Rocket 1.9 12:04:07 10° S 12:06:54 61° W 12:09:42 10° NNW
H-2A R/B 3.4 12:05:48 10° NNE 12:09:52 53° E 12:13:46 10° S
ATLAS CENTAUR R/B 1.4 12:05:51 10° NW 12:09:55 68° WSW 12:14:15 10° SSE
Cosmos 1709 Rocket 4.3 12:06:14 10° NNW 12:12:18 49° W 12:18:22 10° SSW
